CAPE
0 0 0 0 0 0 0 0 0 0 0 0 0 0 0 0 0 0 0 0 0 0 0 0 0 0 0 0 232 626 1051 894 559 367 690 1284 1783 2298 2503 2515 2251 2042 2049 2009 1816 1800 1531 1383 1318 1453 1524 1620 1723 1680 1485 1204 1049 854 922 1248 1275 1072 1057 1143 1132 1159 1150 868 990 1012 1029 1111 912 972 986 945 1185 1392 976 942 837 1015 1047 1022 1041 1054
0 0 0 0 0 0 0 0 0 0 0 0 0 0 0 0 0 0 0 0 0 0 0 0 0 0 0 0 154 596 918 1064 848 626 1272 1835 2141 2155 2123 2284 2297 2210 1898 2060 1926 1622 1445 1384 1309 1431 1541 1598 1772 1684 1400 1356 967 1147 1010 1140 868 1022 779 897 754 960 1050 909 898 906 926 940 892 904 853 797 746 850 838 853 882 920 932 968 954 882
1 0 0 0 0 0 0 0 0 0 0 0 0 0 0 0 0 0 0 0 0 0 0 0 0 0 0 0 139 467 558 733 962 1012 1447 1955 1867 2090 2346 2428 2414 2172 1970 2066 1968 1786 1562 1514 1544 1410 1528 1689 1745 1673 1501 1271 1287 1162 781 705 687 823 655 834 748 830 871 1011 1135 989 856 691 688 619 600 564 510 504 501 683 653 671 702 742 663 641
3 0 0 0 0 0 0 0 0 0 0 0 0 0 0 0 0 0 0 0 0 0 0 0 0 0 0 0 8 422 628 484 748 1036 1676 1756 1957 2136 2284 2456 2526 2322 2079 1953 1778 1630 1546 1504 1514 1426 1586 1703 1793 1758 1518 1252 1143 958 627 737 650 1003 878 954 855 862 1104 1096 904 965 897 646 643 541 548 545 580 524 554 607 623 526 584 564 538 426
0 0 0 0 0 0 0 0 0 0 0 0 0 0 0 0 0 0 0 0 0 0 0 0 0 0 0 0 0 222 455 354 1172 1672 1792 1976 2097 2156 2322 2435 2621 2585 2376 1980 1832 1834 1631 1592 1478 1439 1641 1802 1797 1612 1317 1173 832 772 601 761 696 845 945 872 936 1196 1194 898 674 564 426 535 578 550 572 592 540 474 509 483 505 452 472 437 402 386
0 0 0 0 0 0 0 0 0 0 0 0 0 0 0 0 0 0 0 0 0 0 0 0 0 0 0 0 0 211 253 326 612 1473 1831 2027 2144 2040 2213 2352 2278 2312 2254 2116 1892 1997 1835 1521 1485 1278 1571 1805 1560 1250 872 1142 1038 815 790 616 669 660 738 763 907 1076 680 626 490 369 496 527 554 540 585 524 501 370 414 364 337 375 377 370 365 333
0 0 0 0 0 0 0 0 0 0 0 0 0 0 0 0 0 0 0 0 0 0 0 0 0 0 0 0 5 185 380 397 540 868 1208 1535 1826 1803 1942 2061 2182 2204 2139 2058 1887 1954 1958 1657 1366 1224 1234 1430 1565 1610 1114 798 918 882 694 502 521 690 785 835 776 702 404 497 479 502 589 395 366 569 512 508 413 304 322 308 269 312 358 342 358 241
2 3 0 0 2 0 0 0 0 0 0 0 0 0 0 0 0 0 0 0 0 0 0 0 0 0 0 0 0 69 419 345 458 528 856 974 1354 1655 1868 2001 2172 2254 2235 2116 1944 1987 1947 1795 1584 1303 1294 1243 1370 1552 1268 1088 815 853 736 658 728 602 609 794 697 583 616 422 451 467 508 381 335 420 464 286 285 291 276 216 252 274 248 314 291 187
0 0 2 1 2 0 0 0 0 0 0 0 0 0 0 0 0 0 0 0 0 0 0 0 0 0 0 0 0 4 298 153 109 300 672 736 902 1471 1802 2143 2192 2298 2298 2151 2012 1947 1804 1854 1734 1482 1265 1211 1338 1486 1379 1216 772 875 853 898 872 708 776 785 797 596 534 562 602 532 456 348 400 406 403 290 285 179 60 145 219 237 300 271 220 89
2 2 3 1 0 0 0 0 0 0 0 0 0 0 0 0 0 0 0 0 0 0 0 0 0 0 0 0 0 14 59 56 20 233 382 733 1080 1486 1770 2059 2155 2305 2276 2004 1901 2022 1958 1670 1735 1282 1354 1371 1449 1431 1370 1262 1056 907 967 953 967 840 910 786 652 582 644 618 612 488 449 386 452 501 417 443 356 147 162 205 239 288 232 237 105 0
0 6 0 10 9 0 0 0 0 0 0 0 0 0 0 0 0 0 0 0 0 0 0 0 0 0 0 0 0 54 0 0 4 253 587 892 1242 1462 1817 2041 2149 2140 2036 1847 1830 1944 1853 1900 1712 1198 1166 1234 1335 1297 1231 1194 981 1126 1011 865 948 812 781 855 874 886 686 559 711 468 631 468 526 422 500 421 361 129 91 204 270 216 252 87 0 0
1 5 10 2 0 1 3 7 0 0 0 0 0 0 0 0 0 0 0 0 4 0 0 0 0 0 0 0 0 96 39 0 0 139 421 844 1166 1466 1880 2062 2128 2088 2040 1901 1856 1882 1890 1722 1651 1248 1164 1140 1127 1023 1150 1248 1024 1019 899 827 803 737 733 713 764 688 642 603 524 442 351 418 395 279 280 466 359 173 234 326 252 320 136 0 0 0
4 1 8 3 0 0 10 8 4 0 0 0 0 0 0 0 0 0 0 0 0 0 0 0 0 0 0 0 0 0 25 0 0 73 357 638 792 1230 1583 1886 1927 1820 1833 1773 1733 1801 1801 1662 1527 1436 1052 1022 1042 1064 1286 1312 1071 901 903 876 823 772 840 807 774 641 572 524 498 360 302 327 284 170 214 373 331 275 325 151 235 278 0 0 0 0
16 3 10 17 1 2 6 17 5 0 0 0 0 0 1 0 0 0 0 0 0 0 0 0 0 0 0 0 0 0 36 2 51 126 215 318 836 1070 1289 1696 1831 1849 1765 1785 1702 1602 1861 1776 1612 1431 1224 1080 1130 1266 1436 1385 1141 1012 876 851 782 822 986 957 748 579 535 528 522 394 373 331 180 446 499 421 343 332 265 257 287 106 0 0 0 0
30 16 17 3 2 3 1 11 1 0 0 0 0 0 0 0 0 0 0 0 0 0 0 0 0 0 0 0 0 0 83 45 0 2 48 183 628 1059 1248 1456 1858 1871 1775 1716 1779 1692 1919 1866 1785 1529 1334 1053 1122 1237 1437 1466 1224 1004 944 836 744 782 972 914 921 856 569 561 544 459 461 512 452 506 487 392 360 290 272 208 0 0 0 0 0 0
5 3 1 2 1 0 0 2 3 0 0 0 0 0 0 0 0 0 0 0 0 0 0 0 0 0 0 1 0 0 4 0 0 0 0 160 309 569 968 1462 1827 1843 1750 1712 1798 1849 1877 1797 1860 1608 1455 1160 1156 1281 1356 1428 1221 1044 970 875 846 892 880 877 595 587 668 573 548 423 482 457 430 502 412 354 324 260 196 149 0 0 0 0 0 0
0 20 2 0 10 0 0 2 6 0 0 0 0 0 0 0 0 2 0 0 0 0 0 0 0 0 0 0 1 0 0 0 0 0 0 94 334 509 1031 1509 1847 1879 1797 1820 1865 1670 1859 1776 1776 1659 1615 1271 1172 1166 1365 1401 1159 1032 1026 964 895 846 885 635 536 722 653 611 524 406 508 546 433 472 379 374 286 193 155 86 0 105 35 0 0 0
1 2 0 0 0 1 0 0 1 0 0 0 0 0 0 0 7 0 0 0 0 0 0 0 0 0 0 0 0 0 0 0 0 1 114 472 1066 1634 1911 2149 2044 1870 1865 2020 1952 1751 1676 1907 1908 1734 1591 1532 1471 1100 1294 1419 1191 1080 1108 1016 916 892 809 862 655 658 720 611 535 389 458 431 438 386 349 334 206 74 33 17 0 34 0 0 0 0
0 6 4 0 0 0 0 0 0 4 1 2 0 0 0 0 8 12 5 0 0 0 0 0 0 0 0 0 0 1 0 0 0 137 625 1004 1343 1611 1835 1918 1952 1998 2140 2233 2125 1920 1648 1779 1872 1820 1648 1600 1587 1091 1234 1382 1241 1119 1095 1011 897 973 879 884 663 630 652 658 571 382 418 379 362 344 265 73 167 156 38 28 0 0 0 0 0 0
0 12 4 1 2 2 0 0 1 1 0 8 16 9 0 0 0 0 0 0 0 0 0 0 0 0 0 0 0 0 0 0 5 50 276 706 1203 1398 1556 1826 1923 2061 2207 2328 2174 1916 1663 1658 1746 1781 1674 1538 1549 1441 1287 1347 1306 1161 1078 987 861 960 902 701 665 667 665 634 534 412 378 392 386 344 77 0 150 124 134 186 149 137 143 0 0 0
0 9 16 1 2 0 3 0 0 2 0 0 0 0 0 0 0 0 0 0 0 0 0 0 0 0 0 0 0 0 0 0 0 30 536 1000 1362 1533 1671 1750 1717 2014 2339 2320 2111 1878 1680 1654 1701 1784 1768 1561 1592 1366 1292 1292 1272 1192 1121 1055 1060 1071 861 508 618 611 662 596 543 454 425 427 326 458 37 73 76 172 220 201 164 172 182 4 0 0
0 2 4 0 0 0 1 0 0 0 0 0 0 0 0 0 0 0 0 0 0 0 0 0 0 0 0 0 0 0 0 0 0 2 422 1103 1242 1373 1521 1862 2218 2386 2460 2341 2079 1906 1752 1694 1798 1790 1618 1623 1682 1630 1280 1185 1199 1156 1103 958 1016 960 655 551 555 614 610 576 466 406 416 393 381 561 298 183 158 253 259 223 199 219 196 144 0 0
1 4 0 0 6 0 0 0 0 1 0 0 0 0 0 0 0 0 0 0 0 0 1 0 0 0 88 0 0 0 0 0 0 0 144 823 932 1306 1569 1845 2423 2522 2394 2196 2038 1840 1749 1746 1850 1708 1661 1591 1488 1469 1135 1109 1115 1015 1034 932 927 955 759 667 594 456 453 568 486 416 354 378 450 511 122 156 248 294 281 253 242 247 197 170 0 0
0 1 1 0 0 0 1 0 0 0 4 0 0 0 0 0 0 0 0 0 0 0 0 0 0 0 80 1047 872 932 918 1039 1009 12 5 308 1050 1577 1819 1967 2489 2446 2234 2111 1875 1880 1745 1821 1965 1818 1726 1514 1202 1161 1025 1046 1020 1014 914 885 1018 864 838 720 556 467 533 555 496 492 431 471 569 349 0 225 336 331 308 293 290 262 226 180 0 0
5 0 3 1 4 6 4 0 0 0 0 0 0 0 0 0 0 0 0 0 0 0 0 0 0 0 16 518 366 202 151 112 297 792 1830 2131 2238 2179 2322 2560 2468 2288 2012 1886 1779 1764 1780 1815 1901 1756 1643 1377 1152 1073 1055 997 1029 1083 1036 986 1003 825 826 725 555 510 542 538 510 517 461 662 612 329 119 310 388 350 351 346 333 277 244 197 50 0
0 11 20 9 0 0 0 0 0 0 0 0 0 0 0 0 0 0 0 0 0 0 0 0 0 34 276 266 19 0 0 0 21 390 573 1009 1991 2156 2330 2296 2175 1887 1722 1672 1622 1734 1875 1848 1652 1645 1538 1298 1108 1058 1072 1111 1096 1148 1256 1118 777 829 810 759 651 547 570 522 474 491 641 747 492 256 317 391 409 380 403 401 359 288 247 193 0 0
2 10 4 22 1 0 13 2 0 0 0 0 0 0 0 0 0 0 0 0 0 0 0 0 0 3 5 33 223 355 356 176 443 787 1185 1221 1781 2009 2156 2157 1938 1733 1647 1496 1557 1777 1913 1867 1915 1689 1529 1444 1332 1188 1030 1139 1176 1207 1248 1078 798 795 790 748 713 674 666 538 551 650 667 703 361 340 382 433 443 423 455 447 385 290 251 154 0 0
0 0 6 52 12 0 0 0 0 0 0 0 0 0 0 0 0 0 0 0 0 0 0 0 0 0 0 0 0 445 209 194 716 1366 1495 1751 2010 2014 2026 1980 1658 1644 1508 1447 1618 1765 1846 1886 1756 1786 1540 1476 1376 1275 1005 1030 1058 1166 1149 825 776 743 726 700 718 702 658 658 711 729 550 295 360 437 405 472 471 458 496 484 400 303 248 124 0 0
0 0 61 60 25 2 0 0 0 0 0 0 0 0 0 0 0 0 0 0 0 0 0 0 0 1 0 0 0 40 20 255 641 1193 1597 1942 1939 1879 1924 1776 1594 1514 1482 1535 1698 1700 1750 1738 1579 1661 1489 1392 1240 1070 966 1015 898 816 768 790 763 745 748 757 754 699 589 527 525 506 371 362 447 420 458 487 487 480 497 494 409 298 248 0 0 0
0 72 65 23 27 6 0 0 0 0 0 0 0 0 0 0 0 0 0 0 0 0 0 0 0 0 0 0 4 322 26 265 847 1434 1810 1793 1819 1766 1665 1578 1471 1459 1365 1452 1719 1749 1777 1561 1438 1330 1378 1359 1207 1098 902 969 890 863 763 726 776 671 707 808 861 750 614 474 375 356 417 483 442 505 498 492 491 491 491 487 407 290 252 133 0 0
36 78 0 27 36 14 20 1 0 0 0 0 0 0 0 0 0 0 0 0 0 0 0 0 0 0 0 0 184 272 539 636 1054 1186 1468 1587 1609 1694 1595 1486 1428 1491 1531 1297 1494 1769 1707 1558 1361 1319 1272 1268 1256 1157 866 947 1085 1082 931 718 623 560 631 770 970 891 586 428 371 361 419 458 514 464 483 512 517 490 482 499 415 309 265 137 0 0
4 3 4 30 39 105 71 16 28 27 0 0 0 0 0 0 0 0 0 0 0 0 0 0 0 0 0 894 594 431 793 541 980 1119 1321 1559 1601 1627 1534 1411 1514 1510 1443 1518 1460 1688 1629 1620 1373 1414 1355 1190 1115 1048 1166 1119 948 1014 895 734 583 604 608 815 937 902 738 554 379 303 364 426 441 437 446 513 515 487 486 456 474 319 260 213 200 0
29 0 0 33 17 50 56 33 74 62 3 0 0 0 0 0 0 0 0 0 0 0 0 0 0 0 0 5 118 294 776 649 937 1206 1349 1446 1517 1556 1577 1583 1574 1561 1542 1542 1498 1490 1533 1630 1535 1329 1298 1184 1161 1130 956 872 923 870 839 657 589 665 650 802 884 888 737 428 372 374 324 351 382 371 331 352 400 445 449 474 480 320 263 214 176 0
19 0 2 126 13 50 22 21 60 57 0 0 0 0 0 0 0 0 0 0 0 0 0 0 0 0 0 4 20 88 375 1353 1338 1467 1293 1438 1601 1602 1572 1575 1436 1458 1538 1588 1390 1338 1313 1207 1250 1235 1133 1307 1295 1069 925 1004 882 668 572 696 721 720 703 768 810 796 593 355 367 408 404 350 374 325 342 133 0 0 4 130 411 306 264 218 131 0
0 4 0 41 9 27 41 13 0 0 0 635 72 129 0 0 0 0 0 0 0 0 0 0 0 0 0 4 80 192 536 1165 1072 1409 1523 1473 1640 1595 1562 1569 1656 1675 1564 1505 1602 1481 1425 1379 1164 1265 1140 994 862 1001 1162 1146 872 763 776 891 808 670 620 676 789 773 568 320 305 350 354 352 329 327 356 346 196 0 0 10 300 307 267 159 0 0
4 0 0 0 22 17 2 0 0 0 394 132 182 0 29 0 0 0 0 0 0 0 0 0 0 0 0 1 166 512 664 943 1328 1425 1637 1615 1598 1677 1770 1807 1738 1695 1708 1635 1500 1396 1379 1226 1257 1135 1155 1122 897 1218 1327 1206 881 879 1077 958 844 655 482 492 559 627 434 303 311 306 327 356 341 355 326 286 0 37 81 107 224 287 238 147 0 0
2 2 28 3 2 0 0 0 0 32 32 377 130 36 0 0 0 0 0 0 0 0 0 0 0 0 0 10 448 682 1087 1074 1085 1341 1626 1565 1589 1741 1964 2025 1910 1780 1726 1628 1573 1347 1522 1425 1282 1180 1118 1049 948 779 768 860 998 1109 1017 801 613 563 478 472 518 502 465 339 298 297 321 321 330 424 383 145 78 83 54 66 103 211 226 160 0 0
1 0 0 2 0 0 0 0 0 0 0 111 192 103 8 41 209 0 0 0 0 0 0 0 0 0 0 46 638 748 1236 348 302 1188 1897 1610 1629 1816 2001 2115 2015 1583 1526 1694 1416 1457 1531 1486 1295 1221 1201 1011 858 797 832 887 868 1043 903 642 595 612 681 631 510 400 287 280 216 198 260 287 323 392 417 102 132 154 96 64 50 98 196 123 9 15
48 12 1 3 3 4 4 8 0 1 34 304 449 133 129 112 149 3 0 0 0 0 0 0 0 0 4 164 830 971 513 147 277 1063 2298 1757 1803 1794 1621 1832 1627 1715 1645 1742 1606 1420 1356 1337 1317 1083 1184 967 740 733 777 799 761 782 630 630 667 752 841 740 634 450 424 472 474 436 379 354 350 330 241 193 289 142 103 83 67 102 159 95 3 0
0 0 0 12 18 18 8 1 0 0 34 356 380 456 134 177 479 2 0 0 0 14 116 67 22 80 406 700 1175 1028 497 396 486 1977 1804 1901 1704 1608 1575 1672 1660 1820 1535 1466 1656 1598 1384 1295 1134 1171 1146 829 830 728 811 826 874 796 754 778 699 646 604 467 409 472 478 502 531 575 610 615 393 97 129 141 132 24 74 61 18 87 99 76 1 5
15 2 0 0 8 11 2 7 4 35 250 511 557 426 291 2 91 0 0 5 623 498 486 454 456 523 944 1282 1274 1038 1216 1435 1449 1318 1055 1843 1820 1779 1664 1740 1840 1763 1652 1565 1598 1414 1348 1166 1058 1032 1069 949 778 866 971 978 914 866 779 821 747 624 456 481 528 496 407 548 593 602 598 435 250 291 321 280 200 199 146 44 56 31 41 13 0 0
6 1 1 3 0 22 127 10 21 141 134 473 586 131 15 24 0 0 944 254 1254 1123 863 676 746 788 1153 1481 1353 1516 1306 1113 1364 1176 1096 1840 1954 1899 1762 1612 1826 1674 1836 1678 1368 1330 1295 1224 1151 1214 1155 1029 909 993 1020 968 929 835 882 907 911 711 466 428 474 434 331 323 345 343 283 262 295 341 306 180 242 200 0 0 2 35 34 18 1 2
6 0 1 11 0 6 4 19 26 41 348 698 565 102 10 168 622 428 905 1403 832 1201 1146 683 736 964 1329 1619 1776 1742 1194 1353 1771 1857 1747 1938 2017 2017 1955 1690 1806 1675 1585 1594 1510 1235 1258 1262 1129 1057 1010 831 789 929 938 861 846 902 980 1000 795 516 452 474 518 471 357 276 97 238 296 371 413 422 347 125 75 80 46 72 52 18 17 22 40 51
11 11 10 0 0 4 8 32 102 409 588 677 646 320 805 1060 768 960 1020 1242 1016 1164 1344 898 1029 1167 1641 1893 1670 1481 1476 1396 1824 1918 2166 2257 2208 2093 2071 1971 1667 1738 1477 1478 1491 1274 1166 1148 1218 976 837 749 721 798 822 805 827 900 909 760 574 560 545 553 559 461 336 219 219 211 259 320 284 350 409 269 27 81 111 75 30 17 49 65 78 59
16 212 186 28 137 4 100 170 476 702 748 702 714 703 829 1002 984 948 1362 1426 1360 1028 1418 1166 1194 1535 1847 1640 1566 1480 1432 1310 1650 1973 2199 2203 2161 2053 2024 1882 1696 1702 1567 1438 1522 1252 1236 1251 1188 1105 955 766 636 609 725 766 727 752 708 622 629 658 595 547 481 419 249 233 224 191 44 260 315 323 337 297 223 152 138 106 30 34 140 136 83 37
126 282 346 242 188 132 25 202 275 173 554 580 729 737 893 1107 1081 1160 1424 1135 1184 1248 1277 1064 1172 1453 1726 1702 1460 1400 1543 1380 1634 1667 2022 2062 2030 1958 1883 1735 1664 1786 1649 1504 1354 1312 1157 1252 1228 1105 884 703 697 710 669 736 655 607 483 509 544 575 587 546 407 315 313 276 232 166 97 33 189 241 84 210 49 100 103 173 136 126 142 114 70 42
227 186 450 201 492 48 243 450 402 132 227 543 682 809 917 969 981 1102 1328 1190 1197 1298 1126 1159 1035 1181 1329 1354 1363 1104 1302 1297 1544 1617 1751 1899 1939 1786 1602 1490 1715 1743 1745 1622 1340 1188 1234 1162 1022 908 770 700 709 699 689 691 648 547 518 543 538 486 399 313 336 352 371 335 236 115 48 28 29 56 113 51 181 114 66 166 185 153 95 37 5 1
366 124 162 345 431 126 712 678 495 253 141 145 728 548 725 918 933 942 967 1108 1194 1167 1150 1076 1077 1069 1189 1333 1353 1222 1222 1320 1422 1478 1544 1685 1925 1754 1562 1565 1653 1577 1475 1439 1307 1128 1267 1242 1202 1020 744 719 688 702 716 740 625 519 465 417 392 418 363 253 297 376 397 324 197 106 41 10 5 20 48 86 69 28 130 88 80 50 18 0 0 1
128 87 32 457 466 545 494 552 589 515 368 498 816 793 827 864 873 1008 1092 1186 1254 1045 1080 1214 1262 1232 1271 1359 1409 1297 1298 1403 1502 1532 1527 1595 1665 1690 1692 1563 1381 1455 1549 1331 1495 1142 1247 1125 1113 978 702 875 803 790 757 739 672 548 453 366 327 269 268 265 250 329 382 283 242 206 128 8 0 0 0 3 0 4 1 1 0 46 25 0 3 21
212 372 406 241 209 227 147 1020 932 560 243 219 406 651 830 723 718 738 533 472 959 1125 1082 833 856 1012 1186 1476 1528 1407 1340 1294 1413 1494 1351 1428 1486 1554 1545 1194 1231 1165 1303 1436 1144 1065 1287 1022 989 1078 833 886 904 863 842 783 757 662 525 334 266 250 121 238 217 195 99 288 265 206 181 79 5 0 0 3 5 2 0 0 49 73 16 0 12 22
245 538 472 88 120 58 608 479 1024 931 857 915 535 129 734 609 691 647 597 626 682 770 929 1000 1038 884 831 1058 1243 1327 1375 1383 1372 1341 1292 1300 1329 1340 1331 1065 1032 1009 988 1116 1029 1116 1089 1018 996 976 1009 1015 977 917 838 823 745 626 521 359 280 244 204 172 156 151 144 44 102 238 255 57 137 2 8 10 6 7 0 1 0 19 18 5 11 12
Wind_Speed
nan nan nan nan nan nan nan nan nan nan nan nan nan nan nan nan nan nan nan nan nan nan nan nan nan nan nan nan 38 36 35 29 29 29 29 30 32 31 29 27 25 25 26 29 31 31 27 25 25 23 19 16 14 15 18 20 23 24 25 29 28 25 21 22 22 22 24 24 25 24 24 26 25 25 25 23 23 24 24 24 24 23 23 22 21 21
nan nan nan nan nan nan nan nan nan nan nan nan nan nan nan nan nan nan nan nan nan nan nan nan nan nan nan nan 39 38 35 28 27 27 25 25 26 24 21 20 19 21 25 26 24 23 24 23 20 18 15 13 13 16 18 21 24 25 28 32 30 23 19 21 22 23 22 22 22 22 23 24 24 24 24 24 24 26 26 25 23 22 22 21 21 20
nan nan nan nan nan nan nan nan nan nan nan nan nan nan nan nan nan nan nan nan nan nan nan nan nan nan nan nan 40 37 34 30 27 26 24 22 23 22 20 18 18 20 19 19 19 20 21 20 17 14 13 12 12 17 20 22 25 29 30 34 27 22 22 22 22 23 22 21 23 24 24 24 26 25 24 25 26 27 26 25 24 23 22 21 21 21
nan nan nan nan nan nan nan nan nan nan nan nan nan nan nan nan nan nan nan nan nan nan nan nan nan nan nan nan nan 37 35 32 30 28 27 25 24 22 20 20 19 17 16 13 14 16 20 18 15 13 13 13 15 18 24 25 28 31 30 31 27 23 23 22 22 22 23 24 26 28 28 26 24 23 24 26 27 29 28 26 24 23 22 23 22 21
nan nan nan nan nan nan nan nan nan nan nan nan nan nan nan nan nan nan nan nan nan nan nan nan nan nan nan nan nan 39 37 36 35 33 30 29 28 26 25 24 21 17 16 13 13 17 19 15 13 13 13 15 15 23 30 29 30 31 30 30 26 25 23 22 22 23 25 31 33 32 31 30 29 26 24 26 27 26 25 23 22 22 22 23 23 21
nan nan nan nan nan nan nan nan nan nan nan nan nan nan nan nan nan nan nan nan nan nan nan nan nan nan nan nan nan 44 40 36 37 35 31 29 28 26 24 22 20 18 15 13 15 18 18 13 15 15 15 15 25 35 34 27 34 32 26 24 28 26 21 21 23 23 26 28 29 28 29 29 27 25 23 23 24 22 22 22 21 22 22 23 23 21
nan nan nan nan nan nan nan nan nan nan nan nan nan nan nan nan nan nan nan nan nan nan nan nan nan nan nan nan nan 43 39 36 38 34 33 30 28 26 25 23 20 15 12 13 17 17 15 13 15 14 16 21 28 30 31 28 31 30 27 27 26 25 24 24 26 28 28 27 27 28 27 27 27 26 24 24 23 22 23 23 22 22 22 22 23 21
nan nan nan nan nan nan nan nan nan nan nan nan nan nan nan nan nan nan nan nan nan nan nan nan nan nan nan nan nan nan 38 35 33 32 32 31 29 28 25 22 18 12 10 14 15 15 14 14 16 16 21 26 27 29 29 28 30 31 28 28 25 24 23 24 27 29 28 29 29 25 27 26 25 23 24 24 24 24 24 25 24 23 22 22 22 22
nan nan nan nan nan nan nan nan nan nan nan nan nan nan nan nan nan nan nan nan nan nan nan nan nan nan nan nan nan nan 38 34 31 30 31 31 29 27 23 20 15 10 11 13 15 14 13 15 18 21 23 26 27 27 28 28 28 27 26 24 24 24 23 23 28 27 29 30 29 27 25 26 24 24 25 25 26 27 nan 25 24 23 23 23 23 nan
nan nan nan nan nan nan nan nan nan nan nan nan nan nan nan nan nan nan nan nan nan nan nan nan nan nan nan nan nan nan nan nan nan 31 31 31 28 24 21 18 15 13 14 14 14 17 17 18 22 22 26 25 23 25 26 27 26 26 28 24 22 23 23 24 26 27 30 29 29 26 25 27 24 23 26 26 28 28 25 23 23 22 22 22 22 nan
nan nan nan nan nan nan nan nan nan nan nan nan nan nan nan nan nan nan nan nan nan nan nan nan nan nan nan nan nan nan nan nan nan 36 32 29 26 23 22 19 16 14 14 15 14 17 19 20 21 24 22 22 24 25 25 26 25 28 29 24 22 22 21 23 24 24 28 28 26 27 24 24 23 23 25 26 27 26 nan 20 20 20 20 nan nan nan
nan nan nan nan nan nan nan nan nan nan nan nan nan nan nan nan nan nan nan nan nan nan nan nan nan nan nan nan nan nan nan nan nan 30 26 25 23 23 22 19 14 13 16 16 15 17 20 20 22 23 21 21 25 26 24 26 25 28 26 24 23 22 20 21 23 24 28 29 26 23 21 22 21 22 23 23 24 21 19 20 20 20 19 nan nan nan
nan nan nan nan nan nan nan nan nan nan nan nan nan nan nan nan nan nan nan nan nan nan nan nan nan nan nan nan nan nan nan nan nan nan 24 22 20 20 20 16 14 14 16 17 16 16 17 15 17 20 20 21 24 25 25 27 26 27 26 25 25 23 23 25 25 28 30 28 25 22 22 21 20 19 21 21 20 18 19 21 19 19 nan nan nan nan
nan nan nan nan nan nan nan nan nan nan nan nan nan nan nan nan nan nan nan nan nan nan nan nan nan nan nan nan nan nan nan nan nan 26 24 21 20 19 18 17 16 17 19 19 18 17 19 17 18 20 21 21 24 26 26 26 29 27 26 25 24 25 26 25 26 30 29 26 24 24 23 21 21 19 17 18 19 20 21 20 18 18 nan nan nan nan
nan nan nan nan nan nan nan nan nan nan nan nan nan nan nan nan nan nan nan nan nan nan nan nan nan nan nan nan nan nan nan nan nan nan nan 22 20 21 22 22 20 22 23 22 19 17 19 18 19 22 21 22 24 27 26 27 29 27 25 25 25 25 25 26 25 26 26 24 23 23 22 21 20 21 19 19 20 22 22 19 nan nan nan nan nan nan
nan nan nan nan nan nan nan nan nan nan nan nan nan nan nan nan nan nan nan nan nan nan nan nan nan nan nan nan nan nan nan nan nan nan nan 25 26 27 29 26 24 24 24 22 18 17 19 18 21 22 23 24 26 26 25 28 29 29 27 26 26 26 25 24 24 24 23 23 23 24 23 21 21 21 21 22 23 22 21 20 nan nan nan nan nan nan
nan nan nan nan nan nan nan nan nan nan nan nan nan nan nan nan nan nan nan nan nan nan nan nan nan nan nan nan nan nan nan nan nan nan nan nan 29 30 29 26 25 26 24 22 20 19 18 19 19 21 24 26 27 26 27 29 31 30 29 26 27 27 24 23 23 23 22 25 25 24 23 20 21 21 22 23 24 23 21 nan nan 21 nan nan nan nan
nan nan nan nan nan nan nan nan nan nan nan nan nan nan nan nan nan nan nan nan nan nan nan nan nan nan nan nan nan nan nan nan nan nan 29 29 30 30 29 28 25 24 23 22 21 21 19 18 18 20 23 26 28 28 28 30 32 32 30 28 28 26 24 23 22 22 24 26 24 23 21 19 20 21 23 24 24 nan nan nan nan nan nan nan nan nan
nan nan nan nan nan nan nan nan nan nan nan nan nan nan nan nan nan nan nan nan nan nan nan nan nan nan nan nan nan nan nan nan nan 27 28 28 28 27 26 25 24 24 26 23 21 20 18 17 16 20 23 26 29 30 30 31 33 33 28 28 27 26 24 24 23 22 23 24 21 19 19 20 21 22 23 nan 25 23 nan nan nan nan nan nan nan nan
nan nan nan nan nan nan nan nan nan nan nan nan nan nan nan nan nan nan nan nan nan nan nan nan nan nan nan nan nan nan nan nan nan nan 26 26 25 25 25 26 25 25 23 21 18 18 16 13 15 20 25 26 30 31 30 33 34 33 29 29 28 25 24 25 23 22 23 23 20 19 18 20 22 24 nan nan 25 23 21 20 18 17 17 nan nan nan
nan nan nan nan nan nan nan nan nan nan nan nan nan nan nan nan nan nan nan nan nan nan nan nan nan nan nan nan nan nan nan nan nan nan 27 26 24 23 24 25 25 23 21 19 18 17 16 14 16 21 25 26 29 31 31 33 35 33 30 28 28 27 26 24 21 21 23 23 20 20 20 24 25 26 nan nan nan 23 21 19 17 17 17 nan nan nan
nan nan nan nan nan nan nan nan nan nan nan nan nan nan nan nan nan nan nan nan nan nan nan nan nan nan nan nan nan nan nan nan nan nan 23 23 22 22 24 24 25 24 22 20 18 18 16 16 19 22 26 28 29 31 32 33 33 32 30 27 27 26 24 24 22 20 23 23 22 22 24 27 28 26 26 26 23 22 20 18 17 18 18 18 nan nan
nan nan nan nan nan nan nan nan nan nan nan nan nan nan nan nan nan nan nan nan nan nan nan nan nan nan nan nan nan nan nan nan nan nan 20 22 21 22 25 27 27 26 25 22 20 19 17 18 22 25 26 29 30 31 32 33 33 30 29 27 26 25 23 23 23 20 23 24 24 25 26 27 27 26 26 26 22 20 19 19 19 19 19 20 nan nan
nan nan nan nan nan nan nan nan nan nan nan nan nan nan nan nan nan nan nan nan nan nan nan nan nan nan nan 45 40 42 40 38 32 nan nan 28 31 31 31 31 29 28 28 25 22 20 18 19 24 26 27 29 31 33 35 34 34 31 27 27 26 24 24 24 23 22 22 24 26 26 27 25 25 26 nan 24 21 20 20 20 20 19 20 21 nan nan
nan nan nan nan nan nan nan nan nan nan nan nan nan nan nan nan nan nan nan nan nan nan nan nan nan nan nan 41 35 32 34 30 28 30 32 34 36 36 35 34 32 30 29 24 20 19 18 19 23 25 26 29 32 34 35 35 34 32 29 28 26 25 25 24 23 22 23 25 28 27 25 25 23 23 23 23 20 21 21 22 21 21 21 23 nan nan
nan nan nan nan nan nan nan nan nan nan nan nan nan nan nan nan nan nan nan nan nan nan nan nan nan nan 35 37 nan nan nan nan nan 27 27 30 33 35 35 33 32 31 28 22 19 18 17 20 24 25 27 29 32 34 33 33 33 31 29 27 26 25 25 24 24 23 23 25 28 26 25 24 21 21 21 21 20 21 22 23 22 22 22 23 nan nan
nan nan nan nan nan nan nan nan nan nan nan nan nan nan nan nan nan nan nan nan nan nan nan nan nan nan nan nan 24 24 26 27 27 26 28 31 33 33 32 32 32 31 27 21 18 19 20 21 24 25 27 29 31 32 30 31 31 29 27 26 25 24 25 25 24 24 25 27 27 26 25 23 20 20 20 20 20 22 22 23 23 23 24 24 nan nan
nan nan nan nan nan nan nan nan nan nan nan nan nan nan nan nan nan nan nan nan nan nan nan nan nan nan nan nan nan 24 26 28 28 28 28 31 32 31 30 31 31 29 25 21 19 19 19 22 24 27 28 28 28 28 27 27 26 25 24 25 24 24 24 24 23 25 27 27 26 26 25 23 21 20 20 20 21 22 23 24 24 24 25 25 nan nan
nan nan nan nan nan nan nan nan nan nan nan nan nan nan nan nan nan nan nan nan nan nan nan nan nan nan nan nan nan nan nan 28 28 28 29 30 31 32 32 31 28 24 20 18 18 19 20 22 23 25 25 25 23 23 25 24 23 23 22 23 22 22 23 24 22 23 23 25 27 26 25 23 22 21 21 21 22 23 24 25 25 26 26 nan nan nan
nan nan nan nan nan nan nan nan nan nan nan nan nan nan nan nan nan nan nan nan nan nan nan nan nan nan nan nan nan 21 nan 26 28 28 29 29 28 29 28 27 24 21 18 18 19 18 19 22 23 22 21 20 19 20 22 22 22 22 23 22 21 21 22 23 21 21 24 26 27 27 25 24 23 22 22 22 23 24 25 25 26 27 27 26 nan nan
nan nan nan nan nan nan nan nan nan nan nan nan nan nan nan nan nan nan nan nan nan nan nan nan nan nan nan nan 18 20 21 24 25 24 25 27 26 26 25 23 21 19 18 18 16 18 20 21 23 22 18 18 18 20 22 23 23 23 23 23 22 21 21 22 23 21 24 27 28 28 26 25 24 24 23 23 24 25 25 27 27 27 28 28 nan nan
nan nan nan nan nan 15 nan nan nan nan nan nan nan nan nan nan nan nan nan nan nan nan nan nan nan nan nan 23 20 20 21 22 23 23 25 26 24 22 22 21 19 19 18 16 16 18 20 21 22 22 20 22 24 25 24 24 24 23 23 23 22 23 23 23 22 22 24 27 30 29 28 27 26 25 26 26 27 27 27 28 28 28 29 29 30 nan
nan nan nan nan nan nan nan nan nan nan nan nan nan nan nan nan nan nan nan nan nan nan nan nan nan nan nan nan 28 28 27 27 26 25 24 24 23 21 21 20 20 20 19 17 16 16 17 19 20 22 24 26 29 29 27 27 28 27 26 26 25 27 26 24 22 21 23 27 30 29 28 28 27 26 27 28 30 31 31 29 29 29 30 30 30 nan
nan nan nan 14 nan nan nan nan nan nan nan nan nan nan nan nan nan nan nan nan nan nan nan nan nan nan nan nan nan nan 34 33 31 27 25 24 23 23 23 23 22 21 20 19 16 15 17 19 20 23 25 28 30 31 32 32 31 30 29 29 30 30 28 26 23 22 24 26 29 29 29 29 29 29 31 34 nan nan nan 31 28 29 29 31 31 nan
nan nan nan nan nan nan nan nan nan nan nan 23 nan 20 nan nan nan nan nan nan nan nan nan nan nan nan nan nan nan 34 32 31 30 28 24 23 22 23 23 23 22 20 19 19 18 17 18 19 21 25 28 28 30 32 33 33 33 33 33 33 33 31 29 27 25 23 25 28 30 30 30 31 32 34 36 39 42 nan nan nan 28 28 29 30 nan nan
nan nan nan nan nan nan nan nan nan nan 19 18 23 nan nan nan nan nan nan nan nan nan nan nan nan nan nan nan 36 33 32 31 29 27 25 23 22 24 24 23 22 21 20 20 20 21 20 20 22 24 27 31 33 33 34 35 34 34 35 35 34 31 29 28 26 25 27 29 30 31 32 33 34 35 38 41 nan nan nan 35 34 32 31 30 nan nan
nan nan nan nan nan nan nan nan nan nan nan 14 18 nan nan nan nan nan nan nan nan nan nan nan nan nan nan nan 36 33 32 30 28 26 22 22 22 24 25 25 24 22 22 20 19 19 19 20 21 25 28 29 30 30 31 31 30 31 34 33 32 31 30 28 27 27 29 30 30 31 31 33 35 36 37 35 nan nan nan nan 40 38 36 35 nan nan
nan nan nan nan nan nan nan nan nan nan nan 18 24 21 nan nan 23 nan nan nan nan nan nan nan nan nan nan nan 32 31 31 32 30 27 19 18 19 21 22 22 22 19 17 16 15 15 17 19 20 22 23 25 23 23 24 25 25 28 29 28 28 27 26 25 26 28 29 29 30 30 31 33 34 35 34 34 35 36 nan nan nan nan 42 41 nan nan
nan nan nan nan nan nan nan nan nan nan nan 23 22 20 19 20 21 nan nan nan nan nan nan nan nan nan nan 29 29 28 29 30 29 29 22 17 17 17 17 18 17 14 12 11 12 14 15 16 18 19 20 20 18 18 19 21 24 25 25 24 24 23 23 22 24 26 28 28 29 30 30 31 33 34 33 33 36 37 39 nan nan 44 45 nan nan nan
nan nan nan nan nan nan nan nan nan nan nan 23 22 21 20 15 16 nan nan nan nan nan 10 nan nan nan 29 28 27 26 26 29 27 30 28 19 20 19 18 18 15 11 10 11 11 13 14 15 17 16 15 14 14 16 18 20 22 22 23 22 21 21 21 22 23 25 26 27 28 28 29 30 32 nan 35 36 37 nan nan nan nan nan nan nan nan nan
nan nan nan nan nan nan nan nan nan nan 21 24 23 21 17 nan nan nan nan nan 22 16 14 14 21 29 32 28 26 28 28 34 34 32 30 24 23 22 22 19 14 10 9 11 12 15 16 16 15 15 15 14 16 17 18 19 20 20 20 21 20 19 21 22 25 26 27 27 27 28 30 31 32 34 36 37 38 38 38 nan nan nan nan nan nan nan
nan nan nan nan nan nan 13 nan nan 18 21 22 22 18 nan nan nan nan 23 23 21 19 19 16 18 24 28 28 28 30 32 34 35 32 26 24 27 27 22 17 12 9 10 12 18 18 19 18 17 17 18 19 21 21 21 21 21 20 21 21 20 22 25 26 27 29 30 31 31 33 34 34 34 36 37 38 38 39 nan nan nan nan nan nan nan nan
nan nan nan nan nan nan nan nan nan nan 19 24 24 15 nan 16 19 24 26 23 25 23 22 18 17 18 19 23 27 31 31 32 33 28 23 25 26 24 19 15 10 9 13 16 19 19 21 21 20 20 21 22 24 24 23 23 23 22 22 22 24 27 28 30 31 33 34 35 nan 36 37 37 39 39 40 41 nan nan nan nan nan nan nan nan nan nan
nan nan nan nan nan nan nan nan 18 20 23 25 23 16 17 20 21 25 28 25 26 26 25 21 19 18 18 22 26 28 29 30 31 26 24 24 22 22 20 17 14 14 16 19 21 21 21 22 22 24 24 25 25 25 25 25 24 24 25 25 29 30 33 35 35 37 38 39 39 40 39 40 41 42 43 45 nan nan 46 nan nan nan nan nan nan nan
nan 11 12 nan 12 nan 15 18 18 22 23 23 22 20 20 21 22 24 28 29 28 28 29 24 22 21 22 23 27 29 29 29 29 27 25 23 20 19 19 16 16 16 18 22 23 25 23 24 26 27 28 27 27 26 27 27 28 30 29 31 35 38 39 40 41 42 42 42 43 43 nan 44 44 45 46 48 48 47 46 46 nan nan 41 41 nan nan
13 13 12 9 9 10 nan 13 16 18 25 26 23 22 22 23 24 26 29 30 32 32 33 28 24 23 23 23 23 26 30 30 27 28 29 25 22 20 19 19 18 19 21 23 24 26 25 28 29 31 31 29 28 27 28 29 31 33 33 38 41 42 44 46 47 47 46 46 46 47 nan nan 47 48 nan 50 nan nan 46 47 45 44 43 42 nan nan
14 14 12 11 14 nan 12 14 14 18 22 26 24 23 24 26 27 28 28 30 31 33 33 33 29 26 25 24 23 23 26 29 31 31 31 28 25 22 20 21 22 23 24 25 26 29 27 29 30 31 30 28 28 28 31 31 32 33 37 41 42 44 47 48 49 49 48 47 47 48 nan nan nan nan 46 nan 46 45 nan 45 44 44 nan nan nan nan
9 14 11 11 12 11 17 17 14 11 12 17 22 25 28 29 29 29 28 28 29 30 31 31 30 29 27 25 25 23 25 27 29 31 32 30 27 25 24 24 26 26 26 27 30 30 28 28 29 29 29 28 29 29 31 33 33 37 40 42 44 46 48 49 49 49 47 47 46 44 nan nan nan nan nan nan nan nan 44 nan nan nan nan nan nan nan
13 nan nan 16 14 13 14 13 13 9 9 14 20 27 30 31 31 30 27 26 26 29 29 29 30 30 29 29 28 27 26 26 28 29 29 29 29 28 29 28 29 29 29 29 32 29 28 28 28 30 30 30 31 32 34 35 36 39 42 42 44 46 46 46 47 46 46 44 43 41 40 nan nan nan nan nan nan nan nan nan nan nan nan nan nan nan
11 11 13 12 13 14 15 16 14 13 14 14 20 25 28 33 34 33 31 31 32 30 28 29 30 30 31 31 30 30 31 31 30 29 29 29 30 32 32 32 32 32 31 32 34 29 30 31 30 33 33 33 34 35 37 39 39 40 40 41 42 43 43 44 44 42 nan 41 40 39 39 nan nan nan nan nan nan nan nan nan nan nan nan nan nan nan
12 16 16 nan 15 nan 20 18 15 15 15 17 17 16 24 30 32 35 36 36 36 36 35 33 31 32 34 34 34 35 34 34 33 32 33 34 35 35 34 35 35 35 35 34 34 31 34 33 33 37 36 37 38 37 39 40 40 39 38 38 38 38 39 41 39 38 38 nan 36 36 37 nan 35 nan nan nan nan nan nan nan nan nan nan nan nan nan
Wind_Direction
nan nan nan nan nan nan nan nan nan nan nan nan nan nan nan nan nan nan nan nan nan nan nan nan nan nan nan nan 244 249 249 241 242 245 241 245 248 252 255 259 262 262 260 259 260 264 266 265 264 266 263 263 264 262 266 274 277 277 278 278 276 269 273 270 268 266 265 264 261 263 264 264 265 265 267 267 268 267 268 274 280 285 286 287 284 281
nan nan nan nan nan nan nan nan nan nan nan nan nan nan nan nan nan nan nan nan nan nan nan nan nan nan nan nan 243 245 248 243 244 247 246 247 250 252 257 258 257 253 249 254 257 257 256 256 265 261 254 253 258 258 264 268 272 275 277 270 264 264 265 264 263 263 265 262 259 264 265 263 266 268 270 270 268 265 267 270 273 280 285 281 277 274
nan nan nan nan nan nan nan nan nan nan nan nan nan nan nan nan nan nan nan nan nan nan nan nan nan nan nan nan 242 244 246 241 243 246 246 248 251 247 248 250 248 249 252 254 250 248 247 254 259 251 243 244 253 259 263 263 271 270 266 265 270 261 253 255 264 265 263 260 259 264 265 267 264 259 263 268 267 269 270 271 274 279 281 278 272 270
nan nan nan nan nan nan nan nan nan nan nan nan nan nan nan nan nan nan nan nan nan nan nan nan nan nan nan nan nan 240 242 237 237 239 236 234 240 242 242 243 241 244 246 249 242 239 244 249 245 239 234 237 242 254 258 261 265 261 263 272 268 259 253 258 269 271 267 262 260 261 265 267 267 268 268 267 263 261 264 267 270 273 270 265 264 265
nan nan nan nan nan nan nan nan nan nan nan nan nan nan nan nan nan nan nan nan nan nan nan nan nan nan nan nan nan 236 235 232 233 233 230 228 228 230 229 230 229 231 235 230 230 233 245 243 239 238 237 237 244 250 256 256 258 265 271 274 274 270 265 264 273 273 264 259 252 249 255 256 253 255 263 263 260 262 264 269 274 273 267 265 265 264
nan nan nan nan nan nan nan nan nan nan nan nan nan nan nan nan nan nan nan nan nan nan nan nan nan nan nan nan nan 235 234 233 233 234 233 230 231 231 231 232 229 223 223 216 223 234 242 238 235 237 243 245 241 248 253 245 258 264 270 280 277 279 279 274 281 275 266 262 263 261 259 260 258 259 259 263 265 266 270 270 273 272 268 268 267 266
nan nan nan nan nan nan nan nan nan nan nan nan nan nan nan nan nan nan nan nan nan nan nan nan nan nan nan nan nan 236 235 234 233 233 234 233 230 231 229 231 228 227 221 212 221 235 244 242 244 246 247 248 252 259 265 270 275 279 280 286 288 280 274 276 280 278 271 271 265 264 269 274 269 265 258 251 257 264 263 265 271 271 269 269 268 263
nan nan nan nan nan nan nan nan nan nan nan nan nan nan nan nan nan nan nan nan nan nan nan nan nan nan nan nan nan nan 237 235 233 231 232 233 232 231 231 230 230 228 223 218 225 233 234 240 246 248 247 249 259 263 276 278 280 285 285 292 289 278 279 277 277 279 278 274 269 271 273 272 275 275 275 267 260 263 267 267 271 274 274 271 266 261
nan nan nan nan nan nan nan nan nan nan nan nan nan nan nan nan nan nan nan nan nan nan nan nan nan nan nan nan nan nan 236 236 234 233 232 232 232 231 231 231 230 230 225 223 228 229 227 234 242 248 257 261 266 272 277 276 280 284 285 286 282 283 284 281 278 278 275 273 274 269 275 282 271 272 274 266 262 264 nan 270 274 276 275 271 262 nan
nan nan nan nan nan nan nan nan nan nan nan nan nan nan nan nan nan nan nan nan nan nan nan nan nan nan nan nan nan nan nan nan nan 233 232 232 232 231 230 229 227 225 223 222 224 228 228 234 245 254 261 274 272 270 280 278 278 281 274 274 281 282 278 279 279 274 271 274 274 277 275 272 270 272 268 267 264 263 264 269 274 276 274 270 261 nan
nan nan nan nan nan nan nan nan nan nan nan nan nan nan nan nan nan nan nan nan nan nan nan nan nan nan nan nan nan nan nan nan nan 228 228 231 231 228 225 226 224 225 227 225 228 232 232 239 251 260 266 278 276 275 281 279 281 277 278 283 287 284 277 277 278 275 273 274 273 276 277 280 279 274 272 274 270 261 nan 267 275 275 270 nan nan nan
nan nan nan nan nan nan nan nan nan nan nan nan nan nan nan nan nan nan nan nan nan nan nan nan nan nan nan nan nan nan nan nan nan 235 235 233 232 227 226 224 220 222 228 230 228 235 242 247 258 266 263 276 276 276 280 276 277 274 276 283 285 282 280 276 278 276 275 270 274 283 287 279 281 278 275 283 281 272 270 279 281 272 263 nan nan nan
nan nan nan nan nan nan nan nan nan nan nan nan nan nan nan nan nan nan nan nan nan nan nan nan nan nan nan nan nan nan nan nan nan nan 233 236 233 230 229 231 222 221 228 230 229 228 232 236 255 268 266 269 273 273 275 275 272 273 276 281 281 283 283 284 281 280 277 277 284 287 290 287 284 279 279 286 289 285 279 280 277 269 nan nan nan nan
nan nan nan nan nan nan nan nan nan nan nan nan nan nan nan nan nan nan nan nan nan nan nan nan nan nan nan nan nan nan nan nan nan 224 224 228 228 228 228 229 223 224 232 230 228 231 237 242 255 263 264 267 268 274 274 273 270 272 273 276 279 283 287 286 286 281 281 285 288 290 291 286 281 282 287 286 285 280 273 272 271 266 nan nan nan nan
nan nan nan nan nan nan nan nan nan nan nan nan nan nan nan nan nan nan nan nan nan nan nan nan nan nan nan nan nan nan nan nan nan nan nan 217 218 218 219 219 218 220 227 230 228 233 242 245 257 259 265 265 265 271 272 270 271 274 275 280 282 287 290 288 284 281 286 288 291 289 288 285 277 279 279 275 273 271 269 268 nan nan nan nan nan nan
nan nan nan nan nan nan nan nan nan nan nan nan nan nan nan nan nan nan nan nan nan nan nan nan nan nan nan nan nan nan nan nan nan nan nan 212 210 214 215 215 217 220 225 228 228 232 241 244 253 260 266 266 262 269 266 274 274 272 276 282 286 287 287 284 286 285 287 289 290 292 292 290 278 273 271 268 265 263 264 264 nan nan nan nan nan nan
nan nan nan nan nan nan nan nan nan nan nan nan nan nan nan nan nan nan nan nan nan nan nan nan nan nan nan nan nan nan nan nan nan nan nan nan 212 216 215 216 220 223 225 226 228 231 241 247 257 263 271 269 267 267 265 274 276 277 276 282 288 291 290 291 289 289 291 289 294 299 296 287 275 277 276 272 271 267 262 nan nan 264 nan nan nan nan
nan nan nan nan nan nan nan nan nan nan nan nan nan nan nan nan nan nan nan nan nan nan nan nan nan nan nan nan nan nan nan nan nan nan 216 216 219 220 218 219 224 228 229 232 233 238 245 253 265 270 271 278 275 272 270 274 274 275 280 289 289 292 296 287 289 291 289 294 297 297 297 284 276 276 277 275 272 nan nan nan nan nan nan nan nan nan
nan nan nan nan nan nan nan nan nan nan nan nan nan nan nan nan nan nan nan nan nan nan nan nan nan nan nan nan nan nan nan nan nan 221 218 218 219 219 218 221 226 229 231 235 242 246 251 257 271 276 279 280 279 272 269 271 273 271 278 285 287 293 293 288 287 291 289 292 289 290 290 277 269 269 274 nan 270 270 nan nan nan nan nan nan nan nan
nan nan nan nan nan nan nan nan nan nan nan nan nan nan nan nan nan nan nan nan nan nan nan nan nan nan nan nan nan nan nan nan nan nan 217 218 218 216 215 219 226 230 234 242 249 253 257 267 278 277 276 281 281 273 272 273 272 277 278 283 285 289 288 291 293 291 292 289 286 285 279 269 267 269 nan nan 276 276 277 274 271 262 257 nan nan nan
nan nan nan nan nan nan nan nan nan nan nan nan nan nan nan nan nan nan nan nan nan nan nan nan nan nan nan nan nan nan nan nan nan nan 217 215 215 215 216 218 225 234 238 244 248 252 258 265 269 272 275 278 278 271 270 271 276 280 282 288 290 293 292 293 291 291 286 285 286 285 276 274 275 274 nan nan nan 278 275 270 264 257 257 nan nan nan
nan nan nan nan nan nan nan nan nan nan nan nan nan nan nan nan nan nan nan nan nan nan nan nan nan nan nan nan nan nan nan nan nan nan 216 215 214 214 214 218 225 230 237 242 244 248 251 262 266 270 271 272 276 272 274 272 274 279 288 287 288 288 292 291 290 287 286 284 282 284 274 277 278 278 275 277 278 276 273 265 259 260 265 270 nan nan
nan nan nan nan nan nan nan nan nan nan nan nan nan nan nan nan nan nan nan nan nan nan nan nan nan nan nan nan nan nan nan nan nan nan 209 208 209 212 214 217 221 226 233 236 239 242 248 258 262 268 273 272 273 272 273 270 269 276 285 287 286 290 292 291 291 285 283 284 285 285 278 278 280 280 277 275 273 276 269 261 261 265 272 275 nan nan
nan nan nan nan nan nan nan nan nan nan nan nan nan nan nan nan nan nan nan nan nan nan nan nan nan nan nan 216 217 223 222 213 208 nan nan 204 204 208 214 217 222 226 231 232 230 235 243 252 260 263 272 273 270 273 274 275 273 273 280 285 286 290 294 290 288 286 284 285 287 283 279 278 276 277 nan 270 268 272 265 261 263 270 276 277 nan nan
nan nan nan nan nan nan nan nan nan nan nan nan nan nan nan nan nan nan nan nan nan nan nan nan nan nan nan 224 220 220 219 213 204 203 204 209 210 213 217 217 220 227 231 231 233 238 247 256 265 270 274 273 271 272 274 273 271 273 280 286 287 288 292 286 282 282 283 283 280 276 276 276 273 270 267 266 264 268 264 265 268 272 279 278 nan nan
nan nan nan nan nan nan nan nan nan nan nan nan nan nan nan nan nan nan nan nan nan nan nan nan nan nan 232 234 nan nan nan nan nan 201 203 203 210 215 217 217 221 225 228 229 230 239 253 259 264 269 272 269 270 276 277 275 274 273 278 283 284 289 290 286 278 281 281 279 276 276 278 275 268 265 267 267 267 269 266 268 272 276 276 278 nan nan
nan nan nan nan nan nan nan nan nan nan nan nan nan nan nan nan nan nan nan nan nan nan nan nan nan nan nan nan 233 230 226 218 211 208 208 209 213 216 219 220 222 225 228 228 229 233 244 256 269 275 276 271 275 277 276 274 274 275 277 281 284 289 291 285 282 282 278 274 275 278 281 276 269 264 267 269 270 269 270 272 275 278 279 278 nan nan
nan nan nan nan nan nan nan nan nan nan nan nan nan nan nan nan nan nan nan nan nan nan nan nan nan nan nan nan nan 224 219 215 211 208 210 211 213 215 218 221 227 229 229 226 229 241 253 261 270 273 277 274 273 271 273 273 274 276 277 282 286 291 290 282 280 276 273 276 276 279 283 279 274 271 269 269 272 273 275 275 277 279 277 277 nan nan
nan nan nan nan nan nan nan nan nan nan nan nan nan nan nan nan nan nan nan nan nan nan nan nan nan nan nan nan nan nan nan 207 209 210 207 208 211 214 218 223 227 229 231 232 234 240 252 262 271 272 274 269 268 274 277 274 277 277 279 282 286 290 290 280 277 279 282 279 278 279 282 281 277 272 271 273 276 277 278 278 279 278 277 nan nan nan
nan nan nan nan nan nan nan nan nan nan nan nan nan nan nan nan nan nan nan nan nan nan nan nan nan nan nan nan nan 216 nan 205 211 212 210 207 208 211 215 219 221 222 224 228 237 248 258 267 267 266 262 261 271 279 279 279 283 284 284 288 288 291 284 276 282 281 278 280 277 277 282 283 277 277 275 277 279 279 279 279 278 277 277 278 nan nan
nan nan nan nan nan nan nan nan nan nan nan nan nan nan nan nan nan nan nan nan nan nan nan nan nan nan nan nan 209 209 205 210 211 209 207 205 205 207 209 212 214 216 220 226 237 255 260 262 256 250 257 267 279 286 282 281 283 282 281 283 287 290 292 277 273 274 273 278 276 278 282 280 279 279 281 282 281 278 280 279 277 278 278 278 nan nan
nan nan nan nan nan 176 nan nan nan nan nan nan nan nan nan nan nan nan nan nan nan nan nan nan nan nan nan 201 198 198 197 198 198 201 202 202 202 203 201 202 208 214 222 231 244 254 255 256 252 248 261 278 284 286 282 283 285 283 283 283 287 286 279 277 276 279 275 277 278 279 281 279 281 283 284 283 283 280 278 275 277 278 278 276 278 nan
nan nan nan nan nan nan nan nan nan nan nan nan nan nan nan nan nan nan nan nan nan nan nan nan nan nan nan nan 177 183 187 185 189 192 195 197 197 196 195 198 206 216 225 234 246 252 250 254 256 258 268 280 283 281 280 280 279 281 281 280 281 276 281 283 287 287 283 281 281 283 282 281 283 284 284 284 280 279 276 274 274 274 274 276 276 nan
nan nan nan 166 nan nan nan nan nan nan nan nan nan nan nan nan nan nan nan nan nan nan nan nan nan nan nan nan nan nan 183 188 186 185 185 189 195 194 191 198 208 217 225 233 243 249 253 253 255 264 273 276 278 279 277 276 278 277 275 275 276 279 284 285 286 291 287 284 285 285 283 281 281 278 272 266 nan nan nan 263 270 270 270 271 274 nan
nan nan nan nan nan nan nan nan nan nan nan 200 nan 204 nan nan nan nan nan nan nan nan nan nan nan nan nan nan nan 181 185 186 186 180 180 182 187 189 195 203 209 218 227 239 249 258 265 268 268 269 273 274 277 275 272 271 272 272 272 270 271 278 286 288 286 285 282 282 280 280 279 280 279 276 274 272 268 nan nan nan 270 275 274 273 nan nan
nan nan nan nan nan nan nan nan nan nan 202 202 207 nan nan nan nan nan nan nan nan nan nan nan nan nan nan nan 174 183 185 187 184 181 179 181 181 189 198 204 209 215 225 236 249 255 261 269 270 269 270 270 274 272 271 271 272 272 269 268 271 277 284 288 287 285 283 281 281 282 281 280 278 274 275 276 nan nan nan 280 276 276 273 275 nan nan
nan nan nan nan nan nan nan nan nan nan nan 214 211 nan nan nan nan nan nan nan nan nan nan nan nan nan nan nan 180 183 187 186 179 181 187 177 182 189 196 203 209 213 219 231 242 252 258 265 270 271 269 270 274 275 274 273 274 271 269 269 269 273 276 281 281 279 279 280 282 284 284 283 282 283 285 286 nan nan nan nan 276 270 268 272 nan nan
nan nan nan nan nan nan nan nan nan nan nan 214 209 213 nan nan 199 nan nan nan nan nan nan nan nan nan nan nan 178 183 186 177 171 180 192 184 189 197 201 206 213 218 225 235 249 260 269 270 274 274 272 272 278 278 275 273 274 272 273 273 272 272 274 278 277 275 275 277 279 280 281 281 282 284 286 286 289 285 nan nan nan nan 268 271 nan nan
nan nan nan nan nan nan nan nan nan nan nan 199 211 212 208 205 200 nan nan nan nan nan nan nan nan nan nan 166 176 187 183 176 180 185 199 203 208 208 217 219 223 226 235 250 265 275 278 276 275 276 273 276 278 278 276 277 276 272 273 276 280 282 281 282 279 278 277 277 278 280 281 283 284 283 286 289 288 288 287 nan nan 278 274 nan nan nan
nan nan nan nan nan nan nan nan nan nan nan 199 200 201 200 204 204 nan nan nan nan nan 204 nan nan nan 171 174 181 180 175 180 184 194 191 208 218 215 221 225 225 229 243 258 268 275 284 282 280 282 286 292 294 290 287 279 271 270 270 269 273 277 276 278 278 280 278 278 281 282 282 284 287 nan 288 287 286 nan nan nan nan nan nan nan nan nan
nan nan nan nan nan nan nan nan nan nan 204 198 191 188 199 nan nan nan nan nan 210 210 206 192 174 173 176 179 178 175 180 184 189 194 189 205 223 223 218 218 217 226 249 268 275 277 277 281 285 289 295 289 294 293 288 279 274 271 269 270 270 273 268 270 271 275 277 278 279 281 281 277 281 279 278 283 286 285 284 nan nan nan nan nan nan nan
nan nan nan nan nan nan 184 nan nan 201 198 182 186 188 nan nan nan nan 199 185 182 190 191 191 183 179 181 186 189 192 203 202 204 206 207 213 220 224 219 215 217 244 264 273 272 276 278 285 289 294 292 287 287 285 285 285 281 276 274 273 274 271 265 268 272 274 278 280 279 277 275 276 275 279 281 285 288 291 nan nan nan nan nan nan nan nan
nan nan nan nan nan nan nan nan nan nan 199 188 176 187 nan 179 194 187 173 182 177 178 182 187 179 183 188 199 202 208 209 211 218 221 227 224 223 227 222 221 232 265 282 287 286 287 278 279 286 294 298 295 290 288 288 289 285 280 276 275 274 269 269 270 271 273 275 276 nan 279 280 279 283 284 283 287 nan nan nan nan nan nan nan nan nan nan
nan nan nan nan nan nan nan nan 200 196 185 191 177 184 194 183 171 172 170 182 181 179 183 189 182 187 193 200 204 208 207 213 227 231 235 235 233 231 229 237 257 275 285 289 293 292 288 283 288 290 294 294 291 288 286 286 281 277 275 275 271 272 271 272 274 274 274 274 276 277 278 279 282 282 283 288 nan nan 293 nan nan nan nan nan nan nan
nan 219 205 nan 201 nan 200 207 205 189 195 195 188 177 175 175 175 176 177 182 182 188 180 186 192 192 195 201 203 204 205 211 221 232 239 241 239 240 246 260 273 278 282 287 292 294 293 289 292 292 294 293 293 288 283 282 281 279 280 275 274 276 276 276 276 275 275 278 279 279 nan 278 282 283 284 286 288 290 289 289 nan nan 291 291 nan nan
234 222 211 188 191 190 nan 200 209 198 194 193 193 190 184 184 186 181 186 194 191 188 188 193 192 193 196 202 203 203 203 212 219 230 235 241 243 249 257 268 273 273 276 279 284 290 289 286 290 291 292 289 287 283 279 280 281 283 282 278 278 277 276 276 276 276 278 279 280 281 nan nan 284 282 nan 283 nan nan 285 286 287 288 289 291 nan nan
237 222 221 207 210 nan 207 233 228 224 197 187 195 202 199 196 193 189 193 196 196 194 198 198 198 196 198 202 201 207 211 213 217 222 230 236 242 251 261 265 268 273 277 280 280 282 283 285 288 290 289 287 282 278 274 278 279 283 281 281 281 280 278 278 277 277 279 282 283 283 nan nan nan nan 282 nan 283 283 nan 284 286 287 nan nan nan nan
245 226 200 203 201 204 212 229 236 240 201 179 188 203 206 202 202 200 198 198 200 203 205 205 205 206 203 209 211 216 219 220 223 226 228 231 236 245 252 257 263 266 266 269 273 279 283 285 289 290 289 284 281 278 277 277 280 283 283 282 282 280 279 279 279 281 283 285 283 285 nan nan nan nan nan nan nan nan 283 nan nan nan nan nan nan nan
207 nan nan 220 207 212 222 228 232 236 208 208 214 211 205 200 199 202 206 208 210 216 215 211 210 212 214 218 220 226 231 231 230 231 230 230 234 240 246 252 258 258 262 267 271 279 281 282 285 287 288 286 283 281 280 281 282 286 286 284 282 281 281 281 282 280 280 278 279 279 281 nan nan nan nan nan nan nan nan nan nan nan nan nan nan nan
204 211 219 217 218 215 208 227 236 223 211 209 214 201 202 202 196 203 214 211 213 215 219 222 218 216 216 216 224 229 233 233 233 232 234 232 235 241 247 252 256 260 261 262 266 277 277 277 283 285 288 285 284 286 284 285 284 285 285 283 282 282 281 280 280 281 nan 281 281 281 279 nan nan nan nan nan nan nan nan nan nan nan nan nan nan nan
201 210 213 nan 213 nan 218 213 218 213 224 230 229 205 202 201 198 203 207 208 210 213 214 219 225 225 223 221 220 228 232 234 235 236 237 236 238 241 245 251 255 259 263 266 270 276 275 279 281 283 286 285 286 289 288 288 286 285 284 283 283 284 283 283 280 279 281 nan 283 284 283 nan 283 nan nan nan nan nan nan nan nan nan nan nan nan nan